Vienna, OH

1:03 PM EST on February 09, 2016 (GMT -0500)
Youngstown-Warren Regional

Weather History for KYNG - December, 2013

Change the Weather History Date:

Sunday, December 29, 2013

  Actual Average Record
Temperature  
Mean Temperature 36 °F 27 °F  
Max Temperature 42 °F 33 °F 62 °F (1984)
Min Temperature 30 °F 20 °F -5 °F (1961)
Degree Days  
Heating Degree Days 29 38  
Month to date heating degree days 974 1000  
Since 1 July heating degree days 2356 2329  
Cooling Degree Days 0 0  
Month to date cooling degree days 0 0  
Year to date cooling degree days 630 544  
Moisture  
Dew Point 32 °F    
Average Humidity 73    
Maximum Humidity 100    
Minimum Humidity 46    
Precipitation  
Precipitation 0.13 in 0.09 in 0.71 in (1984)
Month to date precipitation 3.32 2.81  
Year to date precipitation 38.93 38.73  
Snow  
Snow T in 0.50 in - ()
Month to date snowfall 16.5 14.0  
Since 1 July snowfall 30.6 18.4  
Snow Depth 0.00 in    
Sea Level Pressure  
Sea Level Pressure 29.81 in    
Wind  
Wind Speed 8 mph (SW)    
Max Wind Speed 20 mph    
Max Gust Speed 25 mph    
Visibility 8 miles    
Events Rain , Snow    
T = Trace of Precipitation, MM = Missing Value Source: NWS Daily Summary

Daily Weather History Graph

Daily Weather History Graph

Search for Another Location

Airport or City:

Trip Planner

Search our weather history database for the weather conditions in past years. The results will help you decide how hot, cold, wet, or windy it might be!

Date:

Astronomy

Dec. 29, 2013 Rise Set
Actual Time 7:48 AM EST 5:02 PM EST
Civil Twilight 7:16 AM EST 5:33 PM EST
Nautical Twilight 6:42 AM EST 6:07 PM EST
Astronomical Twilight 6:08 AM EST 6:41 PM EST
Moon 4:29 AM EST (12/29) 2:39 PM EST (12/29)
Length of Visible Light 10h 16m
Length of Day
9h 14m
Waning Crescent, 11% of the Moon is Illuminated
Dec 29
Waning Crescent
Jan 1
New
Jan 7
First Quarter
Jan 15
Full
Jan 24
Last Quarter

Hourly Weather History & Observations

Time (EST) Temp. Windchill Dew Point Humidity Pressure Visibility Wind Dir Wind Speed Gust Speed Precip Events Conditions
12:51 AM 41.0 °F 38.0 °F 25.0 °F 53% 29.99 in 10.0 mi South 4.6 mph - N/A   Mostly Cloudy
1:51 AM 41.0 °F 37.1 °F 25.0 °F 53% 29.99 in 10.0 mi South 5.8 mph - N/A   Overcast
2:51 AM 41.0 °F 35.8 °F 25.0 °F 53% 29.98 in 10.0 mi South 8.1 mph - N/A   Overcast
3:51 AM 41.0 °F 35.8 °F 24.1 °F 51% 29.95 in 10.0 mi South 8.1 mph - N/A   Overcast
4:51 AM 41.0 °F 37.1 °F 23.0 °F 49% 29.93 in 10.0 mi South 5.8 mph - N/A   Overcast
5:51 AM 41.0 °F 37.1 °F 23.0 °F 49% 29.91 in 10.0 mi South 5.8 mph - N/A   Overcast
6:51 AM 41.0 °F 37.1 °F 23.0 °F 49% 29.88 in 10.0 mi SE 5.8 mph - N/A   Overcast
7:51 AM 39.9 °F 35.8 °F 23.0 °F 51% 29.87 in 10.0 mi SSE 5.8 mph - N/A   Overcast
8:51 AM 42.1 °F 34.9 °F 24.1 °F 49% 29.85 in 10.0 mi SE 13.8 mph - 0.00 in Rain Light Rain
9:51 AM 39.9 °F 33.4 °F 28.0 °F 63% 29.81 in 10.0 mi SE 10.4 mph 18.4 mph 0.00 in Rain Light Rain
10:51 AM 41.0 °F 38.0 °F 34.0 °F 76% 29.78 in 10.0 mi South 4.6 mph - 0.00 in   Overcast
11:51 AM 39.9 °F 37.8 °F 36.0 °F 86% 29.75 in 10.0 mi SSW 3.5 mph - 0.00 in Rain Light Rain
12:09 PM 39.2 °F 37.0 °F 35.6 °F 87% 29.72 in 9.0 mi WSW 3.5 mph - 0.00 in Rain Light Rain
12:51 PM 39.9 °F 37.8 °F 37.0 °F 89% 29.73 in 5.0 mi West 3.5 mph - 0.02 in Rain Light Rain
1:28 PM 39.2 °F 35.9 °F 37.4 °F 93% 29.71 in 3.0 mi WNW 4.6 mph - 0.03 in Rain Light Rain
1:51 PM 39.0 °F - 36.0 °F 89% 29.73 in 6.0 mi Calm Calm - 0.05 in Rain Light Rain
2:32 PM 39.2 °F 37.0 °F 37.4 °F 93% 29.69 in 6.0 mi WSW 3.5 mph - 0.02 in Rain Light Rain
2:51 PM 39.9 °F 35.8 °F 37.9 °F 93% 29.70 in 6.0 mi SW 5.8 mph - 0.02 in Rain Light Rain
3:10 PM 39.2 °F 34.2 °F 37.4 °F 93% 29.68 in 6.0 mi SW 6.9 mph - 0.00 in Rain Light Rain
3:51 PM 39.9 °F 33.9 °F 39.0 °F 97% 29.71 in 6.0 mi WSW 9.2 mph - 0.01 in Rain Light Rain
4:51 PM 41.0 °F 35.2 °F 39.0 °F 93% 29.72 in 5.0 mi WSW 9.2 mph - 0.00 in Rain Light Rain
5:51 PM 39.9 °F 32.9 °F 37.9 °F 93% 29.72 in 10.0 mi WSW 11.5 mph - 0.01 in   Overcast
6:06 PM 39.2 °F 32.0 °F 37.4 °F 93% 29.71 in 10.0 mi WSW 11.5 mph - N/A   Overcast
6:51 PM 39.0 °F 31.8 °F 35.1 °F 86% 29.76 in 10.0 mi West 11.5 mph - N/A   Mostly Cloudy
7:09 PM 39.2 °F 30.2 °F 35.6 °F 87% 29.75 in 10.0 mi West 17.3 mph 24.2 mph N/A   Overcast
7:25 PM 39.2 °F 32.0 °F 35.6 °F 87% 29.75 in 10.0 mi West 11.5 mph 21.9 mph N/A   Overcast
7:42 PM 39.2 °F 32.0 °F 35.6 °F 87% 29.76 in 10.0 mi West 11.5 mph - N/A   Overcast
7:51 PM 37.9 °F 30.9 °F 35.1 °F 89% 29.79 in 10.0 mi West 10.4 mph - N/A   Overcast
8:51 PM 39.0 °F 32.8 °F 35.1 °F 86% 29.80 in 8.0 mi WSW 9.2 mph - N/A   Overcast
9:17 PM 39.2 °F 31.2 °F 35.6 °F 87% 29.77 in 4.0 mi WSW 13.8 mph 20.7 mph 0.00 in Rain Light Rain
9:32 PM 37.4 °F 30.3 °F 35.6 °F 93% 29.78 in 4.0 mi WSW 10.4 mph - 0.00 in Rain Light Rain
9:51 PM 37.9 °F 30.0 °F 35.1 °F 89% 29.81 in 3.0 mi West 12.7 mph 21.9 mph 0.00 in Rain Light Rain
10:51 PM 33.1 °F 22.6 °F 30.9 °F 92% 29.84 in 3.0 mi NNW 16.1 mph - 0.02 in Rain Light Rain
11:37 PM 30.2 °F 19.8 °F 28.4 °F 93% 29.84 in 7.0 mi NNW 13.8 mph - 0.00 in   Light Freezing Drizzle
11:51 PM 30.0 °F 18.7 °F 28.0 °F 92% 29.88 in 4.0 mi NNW 16.1 mph - 0.00 in Snow Light Freezing Drizzle